Location: Greenwich
(51.4790°N, 0.0090°E)
Time: 16:03:56
(UTC+01:00)

Vanguard 1 Rocket - All Passes

Search period start: 23 June 2025 00:00
Search period end: 03 July 2025 00:00
Orbit: 651 x 4216 km, 34.3° (Epoch: 22 June)

Date Brightness Start Highest point End Pass type
(mag) Time Alt. Az. Time Alt. Az. Time Alt. Az.
23 Jun - 05:54:05 10° SSW 05:57:32 16° SSE 06:01:59 10° SE daylight
23 Jun - 08:16:30 10° SW 08:21:38 20° S 08:29:08 10° SE daylight
23 Jun - 10:43:06 10° SW 10:46:59 12° SSW 10:51:39 10° S daylight
24 Jun - 04:44:47 10° S 04:45:57 11° SSE 04:47:13 10° SE daylight
24 Jun - 07:05:19 10° SW 07:09:32 19° S 07:15:26 10° SE daylight
24 Jun - 09:29:42 10° SW 09:34:17 15° SSW 09:40:20 10° SSE daylight
25 Jun - 05:54:32 10° SSW 05:57:43 16° S 06:01:44 10° SE daylight
25 Jun - 08:17:37 10° SW 08:21:53 16° S 08:27:39 10° SSE daylight
26 Jun - 04:44:35 10° S 04:46:06 11° SSE 04:47:44 10° SE daylight
26 Jun - 07:06:11 10° SW 07:09:48 16° S 07:14:32 10° SSE daylight
26 Jun - 09:33:03 10° SSW 09:34:31 10° SSW 09:36:06 10° S daylight
27 Jun - 05:55:10 10° SSW 05:57:57 14° S 06:01:20 10° SE daylight
27 Jun - 08:19:23 10° SW 08:22:10 12° SSW 08:25:28 10° S daylight
28 Jun - 04:44:46 10° S 04:46:17 11° S 04:47:54 10° SSE daylight
28 Jun - 07:07:25 10° SSW 07:10:04 13° S 07:13:16 10° SSE daylight
29 Jun - 05:56:05 10° SSW 05:58:13 12° S 06:00:39 10° SSE daylight
30 Jun - 04:45:17 10° S 04:46:30 11° S 04:47:47 10° SSE daylight
01 Jul - 05:58:07 10° S 05:58:29 10° S 05:58:51 10° S daylight
